User: anonymous   Login
Location: Trebic
(49.2170°N, 15.8830°E)
Time: 06:24:49
(UTC+02:00)
Language:

Explorer 7 - Orbit

View from above orbital plane
View from above orbital plane
View from above satellite
View from above satellite

Ground track
Ground track

The orbit data is extracted from the following two-line orbital elements,

1    22U 59009A   19233.91742656 -.00000040 +00000-0 +20272-4 0  9997
2    22 050.2845 071.9416 0140099 190.6386 169.1589 14.94901296425414
Epoch (UTC): 21 August 2019 22:01:05
Eccentricity: 0.0140099
inclination: 50.2845°
perigee height: 485 km
apogee height: 680 km
right ascension of ascending node: 71.9416°
argument of perigee: 190.6386°
revolutions per day: 14.94901296
mean anomaly at epoch: 169.1589°
orbit number at epoch: 42541

The dashed part of the orbit path shows where the satellite is in the earth's shadow,  

DLR